World > North America > United States > Pennsylvania

Ebervale, Pennsylvania Regional Weather

Lat: 40.99N, Lon: 75.94W
Wx Zone: PAZ047Web Search
Ebervale Weather Warning NWS WEATHER ALERT FOR THE EBERVALE, PA AREA - Issued: 307 AM EDT Wed May 12 2021 Ebervale Weather Warning  

Pass this page to a friend. Tell them to point their camera at the QR Code near the bottom of this page.

Feedback


°F Click to change Ebervale hourly weather to Imperial units.Click to change Ebervale hourly weather to Metric units. °C
Ebervale Weather Map
UTC Time: 5/12/2021, 14:04
Your Time:

Ebervale, PA Regional Weather

Expires:202105121500;;000785
ASUS41 KCTP 121403
RWRCTP

REGIONAL WEATHER ROUNDUP
NATIONAL WEATHER SERVICE STATE COLLEGE PA
1000 AM EDT WED MAY 12 2021

Note: "fair" indicates few or no clouds below 12,000 feet with no 
significant weather and/or obstructions to visibility.

* = STATION THAT DOES NOT REPORT PRECIPITATION /E.G. RAIN...SNOW...ETC/
    THUNDER OR FOG.


PAZ038>040-043-044-047-048-054-055-060>062-067>071-121500-
EASTERN PENNSYLVANIA
  
CITY           SKY/WX    TMP DP  RH WIND       PRES   REMARKS
TOWANDA        SUNNY     52  36  54 E5        30.27S                  
SCRANTON       CLOUDY    51  36  56 CALM      30.23F                  
MOUNT POCONO   SUNNY     46  34  62 NW18G25   30.17S                  
HAZLETON       FAIR      46  32  57 NW9G17    30.24F                  
LEHIGHTON      FAIR      54  36  50 N9        30.24S                  
ALLENTOWN      SUNNY     52  35  52 NW16G24   30.21S                  
QN CITY/ALNTWN FAIR      54  36  50 NW9       30.23S                  
QUAKERTOWN*    SUNNY     54  36  50 NW8G20    30.21S                  
PERKASIE*      SUNNY     54  36  50 N9G18     30.22R                  
DOYLESTOWN     SUNNY     54  35  48 NW9G17    30.20S                  
READING        SUNNY     54  37  52 N13       30.22F                  
LANCASTER      SUNNY     56  37  49 N10       30.24S                  
COATESVILLE    SUNNY     52  36  54 VRB7G15   30.24F                  
WEST CHESTER   SUNNY     50  32  50 N5        30.23S                  
POTTSTOWN      SUNNY     53  35  50 N9        30.23S                  
BLUE BELL      SUNNY     53  35  50 NW8       30.22F                  
NORTH PHILA    MOSUNNY   54  35  48 N10G18    30.23S                  
PHILADELPHIA   MOSUNNY   53  34  48 NW15G21   30.23F                  
$$
  

SKY/WX - Weather  TMP - Temperature  DP - Dew Point  RH - Relative Humidity
WIND - Wind Direction/Speed PRES - Barometric Pressure VSB - Visibility
WCI - Wind Chill Index E13G22 Wind - East Wind 13 mph/Gusts of 22 mph